Location: Audrecelles
(50.8240°N, 1.5923°E)
Time: 02:52:19
(UTC+00:00)

Cosmos 44 - Pass Details

Date: 15 October 2025
Orbit: 576 x 774 km, 65.1° (Epoch: 13 November)

Event Time Altitude Azimuth Distance (km) Brightness Sun altitude
Exits shadow 02:39:55 16° 0° (N) 1,809 5.7 -33.8°
Maximum altitude 02:40:23 16° 7° (N) 1,805 5.8 -33.7°
Drops below altitude 10° 02:43:25 10° 44° (NE) 2,203 6.7 -33.3°
Sets 02:46:47 0° 67° (ENE) 3,164 7.8 -32.9°
